This demonstration page uses our WeatherBlox Daily Observations layout. Learn more.

Left ArrowRight Arrow

41.12389, -100.76542

Hourly Observations for January 21, 2018

Temp ( °F °C ) Dew Point ( °F °C ) Humidity (%) Winds ( mph kmh ) Pressure ( in mb ) Visibility ( mi km ) Precip ( " mm )
12:53 am 00:53 Clear 32 0 28 -2.2 85 85 NNE 15 24 29.87 1011 10 16 0.00 0.00
1:53 am 01:53 Clear 33 0.6 29 -1.7 85 85 NNE 17 28 29.84 1011 10 16 0.00 0.00
2:53 am 02:53 Clear 33 0.6 29 -1.7 85 85 NNE 17 28 29.85 1011 10 16 0.00 0.00
3:53 am 03:53 Clear 33 0.6 29 -1.7 85 85 N 17 28 29.86 1011 10 16 0.00 0.00
4:53 am 04:53 Mostly Cloudy 34 1.1 29 -1.7 82 82 NNE 17 28 29.85 1011 10 16 0.00 0.00
5:05 am 05:05 Cloudy 34 1.1 29 -1.7 82 82 NNE 17 28 29.88 1012 10 16 0.00 0.00
5:29 am 05:29 Mostly Cloudy 33 0.6 29 -1.7 85 85 NNE 17 28 29.94 1014 10 16 0.00 0.00
5:45 am 05:45 Partly Cloudy 33 0.6 29 -1.7 85 85 NNE 16 26 29.94 1014 10 16 0.00 0.00
5:53 am 05:53 Mostly Clear 33 0.6 29 -1.7 85 85 NNE 16 26 29.87 1011 10 16 0.00 0.00
6:53 am 06:53 Clear 33 0.6 29 -1.7 85 85 NNE 17 28 29.86 1011 10 16 0.00 0.00
7:19 am 07:19 Mostly Cloudy 33 0.6 28 -2.2 82 82 NNE 18 30 29.91 1013 10 16 0.00 0.00
7:45 am 07:45 Partly Cloudy 33 0.6 28 -2.2 82 82 NNE 16 26 29.91 1013 10 16 0.00 0.00
7:53 am 07:53 Mostly Clear 33 0.6 28 -2.2 82 82 NNE 18 30 29.86 1011 10 16 0.00 0.00
8:41 am 08:41 Mostly Cloudy 33 0.6 28 -2.2 82 82 NNE 15 24 29.94 1014 10 16 0.00 0.00
8:53 am 08:53 Cloudy 33 0.6 28 -2.2 82 82 NNE 16 26 29.90 1013 10 16 0.00 0.00
9:02 am 09:02 Cloudy 33 0.6 28 -2.2 82 82 NNE 20 31 29.94 1014 10 16 0.00 0.00
9:36 am 09:36 Cloudy 33 0.6 27 -2.8 78 78 NNE 25 41 29.94 1014 10 16 0.00 0.00
9:53 am 09:53 Cloudy 33 0.6 27 -2.8 78 78 NNE 25 41 29.89 1012 10 16 0.00 0.00
10:53 am 10:53 Cloudy 34 1.1 28 -2.2 79 79 NNE 24 39 29.87 1012 10 16 0.00 0.00
11:53 am 11:53 Cloudy 34 1.1 27 -2.8 76 76 NNE 23 37 29.85 1011 10 16 0.00 0.00
12:53 pm 12:53 Cloudy 34 1.1 28 -2.2 79 79 NNE 28 44 29.79 1009 10 16 0.00 0.00
1:53 pm 13:53 Cloudy 34 1.1 28 -2.2 79 79 NNE 23 37 29.80 1009 10 16 0.00 0.00
2:30 pm 14:30 Cloudy with Light Snow 33 0.6 29 -1.7 85 85 N 17 28 29.83 1010 2 3 0.01 0.25
2:46 pm 14:46 Cloudy with Light Snow 33 0.6 29 -1.7 85 85 NNE 16 26 29.83 1010 2 3 0.02 0.51
2:53 pm 14:53 Cloudy with Light Snow 33 0.6 29 -1.7 85 85 NNE 17 28 29.80 1009 1 2 0.02 0.51
3:21 pm 15:21 Cloudy with Light Snow 33 0.6 30 -1.1 89 89 NNE 18 30 29.83 1010 1 1 0.02 0.51
3:28 pm 15:28 Cloudy with Snow 33 0.6 30 -1.1 89 89 NNE 20 31 29.83 1010 1 1 0.02 0.51
3:35 pm 15:35 Cloudy with Light Snow 33 0.6 30 -1.1 89 89 NNE 16 26 29.83 1010 1 1 0.02 0.51
3:53 pm 15:53 Cloudy with Snow 33 0.6 30 -1.1 89 89 N 16 26 29.80 1009 1 1 0.03 0.76
4:18 pm 16:18 Cloudy with Snow 33 0.6 30 -1.1 89 89 N 22 35 29.83 1010 1 1 0.02 0.51
4:44 pm 16:44 Cloudy with Snow 32 0 29 -1.7 88 88 N 20 31 29.85 1011 0 0 0.03 0.76
4:53 pm 16:53 Windy with Snow Likely 32 0 29 -1.7 88 88 N 20 31 29.81 1009 1 1 0.03 0.76
5:32 pm 17:32 Cloudy with Snow 32 0 29 -1.7 88 88 N 21 33 29.85 1011 1 1 0.02 0.51
5:39 pm 17:39 Cloudy with Heavy Snow 32 0 29 -1.7 88 88 N 18 30 29.88 1012 0 0 0.03 0.76
5:53 pm 17:53 Mostly Cloudy with Fog 32 0 29 -1.7 88 88 N 22 35 29.82 1010 1 1 0.04 1.02
6:53 pm 18:53 Mostly Cloudy with Freezing Fog 31 -0.6 29 -1.7 92 92 N 23 37 29.83 1010 1 1 0.08 2.03
7:53 pm 19:53 Mostly Cloudy with Freezing Fog 31 -0.6 28 -2.2 89 89 N 21 33 29.82 1010 1 1 0.03 0.76
8:13 pm 20:13 Mostly Cloudy with Mist and Fog 30 -1.1 28 -2.2 92 92 N 23 37 29.85 1011 1 2 0.01 0.25
8:24 pm 20:24 Cloudy with Mist and Fog 30 -1.1 28 -2.2 92 92 NNW 24 39 29.85 1011 1 1 0.02 0.51
8:33 pm 20:33 Mostly Cloudy with Mist and Fog 30 -1.1 28 -2.2 92 92 NNW 25 41 29.85 1011 1 1 0.02 0.51
8:53 pm 20:53 Mostly Cloudy with Freezing Fog 30 -1.1 27 -2.8 88 88 N 24 39 29.79 1009 1 1 0.03 0.76
9:19 pm 21:19 Mostly Cloudy with Mist and Fog 30 -1.1 27 -2.8 88 88 N 25 41 29.85 1011 1 2 0.00 0.00
9:48 pm 21:48 Cloudy with Mist and Fog 30 -1 27 -3 86 86 N 25 41 29.83 1010 1 1 0.00 0.00
9:53 pm 21:53 Mostly Cloudy with Mist and Fog 30 -1.1 27 -2.8 88 88 N 25 41 29.78 1008 1 1 0.00 0.00
10:10 pm 22:10 Mostly Cloudy with Freezing Fog 30 -1.1 27 -2.8 88 88 N 24 39 29.83 1010 1 1 0.00 0.00
10:53 pm 22:53 Mostly Cloudy with Freezing Fog 30 -1.1 27 -2.8 88 88 N 22 35 29.78 1009 1 1 0.00 0.00
11:53 pm 23:53 Mostly Cloudy with Freezing Fog 29 -1.7 26 -3.3 89 89 NNW 22 35 29.78 1009 1 1 0.00 0.00

Powered by AerisWeather